Location: Ferma
(41.9500°N, 44.5167°E)
Time: 19:59:54
(UTC+00:00)

FENGYUN 1C DEB - Pass Details

Date: 11 August 2022
Orbit: 606 x 930 km, 99.7° (Epoch: 01 October)

Event Time Altitude Azimuth Distance (km) Brightness Sun altitude
Exits shadow 18:15:27 28° 188° (S) 1,351 ? -20.6°
Maximum altitude 18:17:54 59° 258° (WSW) 874 ? -20.9°
Drops below altitude 10° 18:23:09 10° 338° (NNW) 2,411 ? -21.6°
Sets 18:25:39 0° 342° (NNW) 3,398 ? -21.9°
